Weather History for Kearney, NE

Change the Weather History Date:

Tuesday, October 29, 2013

  Actual Average Record
Temperature  
Mean Temperature 40 °F 46 °F  
Max Temperature 43 °F 59 °F 90 °F (1937)
Min Temperature 37 °F 33 °F 15 °F (1991)
Degree Days  
Heating Degree Days 25 19  
Month to date heating degree days 404  
Since 1 July heating degree days 553  
Cooling Degree Days 0 0  
Month to date cooling degree days 4  
Year to date cooling degree days 869  
Moisture  
Dew Point 39 °F    
Average Humidity 89    
Maximum Humidity 96    
Minimum Humidity 82    
Precipitation  
Precipitation 0.08 in - 0.79 in (2009)
Sea Level Pressure  
Sea Level Pressure 30.01 in    
Wind  
Wind Speed 12 mph (NNE)    
Max Wind Speed 15 mph    
Max Gust Speed -    
Visibility 4 miles    
Events      
T = Trace of Precipitation, MM = Missing Value Source: NWS Daily Summary

Daily Weather History Graph

Daily Weather History Graph

Search for Another Location

Airport:

Trip Planner

Search our weather history database for the weather conditions in past years. The results will help you decide how hot, cold, wet, or windy it might be!

Date:

Astronomy

Oct. 29, 2013 Rise Set
Actual Time 8:03 AM CDT 6:35 PM CDT
Civil Twilight 7:34 AM CDT 7:03 PM CDT
Nautical Twilight 7:02 AM CDT 7:36 PM CDT
Astronomical Twilight 6:30 AM CDT 8:07 PM CDT
Moon 2:53 AM CDT (10/29) 3:51 PM CDT (10/29)
Length of Visible Light 11h 28m
Length of Day
10h 32m
Waning Crescent, 25% of the Moon is Illuminated
Oct 29
Waning Crescent
Nov 3
New
Nov 9
First Quarter
Nov 17
Full
Nov 25
Last Quarter

Hourly Weather History & Observations

Time (CDT) Temp. Windchill Dew Point Humidity Pressure Visibility Wind Dir Wind Speed Gust Speed Precip Events Conditions
12:15 AM 41.0 °F 33.5 °F 37.4 °F 87% 30.08 in 10.0 mi ENE 13.8 mph - N/A   Overcast
12:35 AM 41.0 °F 34.3 °F 37.4 °F 87% 30.07 in 10.0 mi ENE 11.5 mph - N/A   Overcast
12:55 AM 42.8 °F 37.0 °F 37.4 °F 81% 30.06 in 10.0 mi NE 10.4 mph - N/A   Overcast
1:15 AM 42.8 °F 35.8 °F 37.4 °F 81% 30.07 in 10.0 mi ENE 13.8 mph - N/A   Overcast
1:35 AM 42.8 °F 36.2 °F 37.4 °F 81% 30.07 in 10.0 mi ENE 12.7 mph - N/A   Overcast
1:55 AM 42.8 °F 36.2 °F 37.4 °F 81% 30.06 in 10.0 mi ENE 12.7 mph - N/A   Overcast
2:15 AM 42.8 °F 36.2 °F 39.2 °F 87% 30.06 in 7.0 mi ENE 12.7 mph - N/A   Overcast
2:35 AM 42.8 °F 37.0 °F 39.2 °F 87% 30.06 in 5.0 mi ENE 10.4 mph - N/A   Overcast
2:55 AM 42.8 °F 37.0 °F 39.2 °F 87% 30.05 in 4.0 mi ENE 10.4 mph - N/A   Overcast
3:15 AM 42.8 °F 36.6 °F 39.2 °F 87% 30.03 in 3.0 mi ENE 11.5 mph - N/A   Overcast
3:35 AM 42.8 °F 36.6 °F 39.2 °F 87% 30.03 in 2.0 mi NE 11.5 mph - N/A   Overcast
3:55 AM 42.8 °F 37.0 °F 39.2 °F 87% 30.02 in 2.0 mi ENE 10.4 mph - N/A   Overcast
4:15 AM 42.8 °F 37.5 °F 39.2 °F 87% 30.02 in 1.2 mi ENE 9.2 mph - N/A   Overcast
4:35 AM 42.8 °F 37.5 °F 39.2 °F 87% 30.02 in 0.8 mi NE 9.2 mph - N/A   Overcast
4:55 AM 42.8 °F 37.0 °F 39.2 °F 87% 30.02 in 0.8 mi NE 10.4 mph - N/A   Overcast
5:15 AM 42.8 °F 37.5 °F 39.2 °F 87% 30.03 in 0.5 mi NE 9.2 mph - N/A   Overcast
5:35 AM 42.8 °F 37.5 °F 39.2 °F 87% 30.03 in 0.2 mi NNE 9.2 mph - N/A   Overcast
5:55 AM 42.8 °F 36.6 °F 39.2 °F 87% 30.02 in 0.5 mi NE 11.5 mph - N/A   Overcast
6:15 AM 42.8 °F 37.5 °F 39.2 °F 87% 30.02 in 0.5 mi NE 9.2 mph - N/A   Overcast
6:35 AM 42.8 °F 36.6 °F 39.2 °F 87% 30.02 in 0.8 mi NNE 11.5 mph - N/A   Overcast
6:55 AM 42.8 °F 36.6 °F 41.0 °F 93% 30.01 in 0.8 mi NE 11.5 mph - N/A   Overcast
7:15 AM 42.8 °F 37.5 °F 41.0 °F 93% 30.02 in 0.8 mi NNE 9.2 mph - N/A   Overcast
7:35 AM 42.8 °F 37.5 °F 41.0 °F 93% 30.02 in 1.0 mi NNE 9.2 mph - N/A   Overcast
7:55 AM 42.8 °F 38.0 °F 41.0 °F 93% 30.02 in 1.0 mi NNE 8.1 mph - N/A   Overcast
8:15 AM 42.8 °F 36.2 °F 39.2 °F 87% 30.01 in 0.8 mi NNE 12.7 mph - 0.01 in   Overcast
8:35 AM 42.8 °F 37.0 °F 39.2 °F 87% 30.01 in 0.8 mi NNE 10.4 mph - 0.01 in   Overcast
8:55 AM 42.8 °F 35.8 °F 39.2 °F 87% 30.02 in 0.8 mi NNE 13.8 mph - 0.01 in   Overcast
9:15 AM 42.8 °F 36.2 °F 39.2 °F 87% 30.01 in 1.0 mi NE 12.7 mph - N/A   Overcast
9:35 AM 42.8 °F 36.6 °F 39.2 °F 87% 30.02 in 1.0 mi NNE 11.5 mph - N/A   Overcast
9:55 AM 42.8 °F 36.6 °F 39.2 °F 87% 30.02 in 1.2 mi NE 11.5 mph - N/A   Overcast
10:15 AM 42.8 °F 37.0 °F 39.2 °F 87% 30.03 in 1.5 mi NNE 10.4 mph - 0.01 in   Overcast
10:35 AM 42.8 °F 37.0 °F 39.2 °F 87% 30.03 in 1.8 mi NNE 10.4 mph - 0.01 in   Overcast
10:55 AM 42.8 °F 36.2 °F 39.2 °F 87% 30.02 in 2.5 mi NNE 12.7 mph - 0.02 in   Overcast
11:15 AM 42.8 °F 36.6 °F 39.2 °F 87% 30.02 in 2.5 mi NNE 11.5 mph - 0.01 in   Overcast
11:35 AM 42.8 °F 36.6 °F 39.2 °F 87% 30.03 in 1.8 mi NNE 11.5 mph - 0.03 in   Overcast
11:55 AM 42.8 °F 36.6 °F 41.0 °F 93% 30.02 in 3.0 mi NNE 11.5 mph - 0.04 in   Overcast
12:15 PM 42.8 °F 36.2 °F 41.0 °F 93% 30.01 in 5.0 mi NNE 12.7 mph - N/A   Overcast
12:35 PM 42.8 °F 36.2 °F 41.0 °F 93% 30.01 in 4.0 mi NNE 12.7 mph - N/A   Overcast
12:55 PM 42.8 °F 35.4 °F 39.2 °F 87% 30.01 in 2.0 mi NNE 15.0 mph - N/A   Overcast
1:15 PM 42.8 °F 35.8 °F 39.2 °F 87% 30.01 in 1.5 mi North 13.8 mph - N/A   Overcast
1:35 PM 42.8 °F 36.6 °F 39.2 °F 87% 30.00 in 1.8 mi North 11.5 mph - N/A   Overcast
1:55 PM 42.8 °F 36.2 °F 39.2 °F 87% 29.98 in 1.8 mi North 12.7 mph - N/A   Overcast
2:15 PM 42.8 °F 35.8 °F 39.2 °F 87% 29.96 in 1.5 mi North 13.8 mph - N/A   Overcast
2:35 PM 42.8 °F 35.8 °F 39.2 °F 87% 29.96 in 1.5 mi North 13.8 mph - N/A   Overcast
2:55 PM 42.8 °F 35.8 °F 39.2 °F 87% 29.96 in 1.8 mi North 13.8 mph - N/A   Overcast
3:15 PM 42.8 °F 35.8 °F 39.2 °F 87% 29.95 in 1.5 mi North 13.8 mph - N/A   Overcast
3:35 PM 41.0 °F 33.9 °F 39.2 °F 93% 29.96 in 1.0 mi North 12.7 mph - 0.01 in   Overcast
3:55 PM 41.0 °F 33.5 °F 39.2 °F 93% 29.96 in 1.0 mi North 13.8 mph - 0.01 in   Overcast
4:15 PM 41.0 °F 33.9 °F 39.2 °F 93% 29.96 in 1.2 mi North 12.7 mph - N/A   Overcast
4:35 PM 41.0 °F 35.2 °F 39.2 °F 93% 29.96 in 2.0 mi North 9.2 mph - N/A   Overcast
4:55 PM 41.0 °F 33.9 °F 37.4 °F 87% 29.95 in 3.0 mi North 12.7 mph - N/A   Overcast
5:15 PM 39.2 °F 32.0 °F 37.4 °F 93% 29.95 in 4.0 mi North 11.5 mph - N/A   Overcast
5:35 PM 41.0 °F 34.7 °F 37.4 °F 87% 29.95 in 5.0 mi NNE 10.4 mph - N/A   Overcast
5:55 PM 41.0 °F 34.3 °F 37.4 °F 87% 29.96 in 10.0 mi North 11.5 mph - N/A   Overcast
6:15 PM 41.0 °F 34.3 °F 37.4 °F 87% 29.96 in 10.0 mi North 11.5 mph - N/A   Overcast
6:35 PM 41.0 °F 34.3 °F 37.4 °F 87% 29.98 in 7.0 mi North 11.5 mph - N/A   Overcast
6:55 PM 39.2 °F 31.6 °F 37.4 °F 93% 29.98 in 3.0 mi North 12.7 mph - N/A   Overcast
7:15 PM 39.2 °F 32.0 °F 37.4 °F 93% 29.99 in 2.5 mi NNW 11.5 mph - N/A   Overcast
7:35 PM 39.2 °F 32.5 °F 37.4 °F 93% 30.00 in 2.0 mi NNW 10.4 mph - N/A   Overcast
7:55 PM 39.2 °F 32.5 °F 37.4 °F 93% 30.00 in 2.0 mi North 10.4 mph - N/A   Overcast
8:15 PM 39.2 °F 31.6 °F 37.4 °F 93% 30.00 in 2.0 mi NNW 12.7 mph - N/A   Overcast
8:35 PM 39.2 °F 32.5 °F 37.4 °F 93% 30.01 in 2.5 mi NNW 10.4 mph - N/A   Overcast
8:55 PM 39.2 °F 32.5 °F 37.4 °F 93% 30.01 in 6.0 mi North 10.4 mph - N/A   Overcast
9:15 PM 39.2 °F 32.0 °F 37.4 °F 93% 30.01 in 3.0 mi NNW 11.5 mph - N/A   Overcast
9:35 PM 39.2 °F 32.0 °F 37.4 °F 93% 30.01 in 3.0 mi North 11.5 mph - N/A   Overcast
9:55 PM 39.2 °F 33.0 °F 37.4 °F 93% 30.02 in 5.0 mi NNW 9.2 mph - N/A   Overcast
10:15 PM 39.2 °F 32.5 °F 37.4 °F 93% 30.02 in 4.0 mi NNW 10.4 mph - N/A   Overcast
10:35 PM 39.2 °F 32.5 °F 37.4 °F 93% 30.02 in 5.0 mi North 10.4 mph - N/A   Overcast
10:55 PM 39.2 °F 33.0 °F 37.4 °F 93% 30.02 in 10.0 mi North 9.2 mph - N/A   Overcast
11:15 PM 39.2 °F 33.6 °F 37.4 °F 93% 30.03 in 10.0 mi North 8.1 mph - N/A   Overcast
11:35 PM 39.2 °F 33.0 °F 37.4 °F 93% 30.02 in 8.0 mi North 9.2 mph - N/A   Overcast
11:55 PM 39.2 °F 33.0 °F 37.4 °F 93% 30.01 in 4.0 mi North 9.2 mph - N/A   Overcast